#datetime,building,power
2023-02-14T00:00:00,axn,27.54
2023-02-14T00:01:00,axn,27.71
2023-02-14T00:02:00,axn,27.64
2023-02-14T00:03:00,axn,27.48
2023-02-14T00:04:00,axn,27.47
2023-02-14T00:05:00,axn,27.49
2023-02-14T00:06:00,axn,27.98
2023-02-14T00:07:00,axn,27.77
2023-02-14T00:08:00,axn,28.07
2023-02-14T00:09:00,axn,27.87
2023-02-14T00:10:00,axn,28.05
2023-02-14T00:11:00,axn,27.54
2023-02-14T00:12:00,axn,27.40
2023-02-14T00:13:00,axn,27.69
2023-02-14T00:14:00,axn,27.81
2023-02-14T00:15:00,axn,27.61
2023-02-14T00:16:00,axn,27.95
2023-02-14T00:17:00,axn,27.55
2023-02-14T00:18:00,axn,27.66
2023-02-14T00:19:00,axn,27.94
2023-02-14T00:20:00,axn,27.95
2023-02-14T00:21:00,axn,27.85
2023-02-14T00:22:00,axn,27.83
2023-02-14T00:23:00,axn,27.64
2023-02-14T00:24:00,axn,27.73
2023-02-14T00:25:00,axn,27.90
2023-02-14T00:26:00,axn,27.71
2023-02-14T00:27:00,axn,38.24
2023-02-14T00:28:00,axn,38.04
2023-02-14T00:29:00,axn,38.37
2023-02-14T00:30:00,axn,37.91
2023-02-14T00:31:00,axn,27.53
2023-02-14T00:32:00,axn,27.55
2023-02-14T00:33:00,axn,27.71
2023-02-14T00:34:00,axn,32.19
2023-02-14T00:35:00,axn,32.11
2023-02-14T00:36:00,axn,32.21
2023-02-14T00:37:00,axn,27.78
2023-02-14T00:38:00,axn,27.90
2023-02-14T00:39:00,axn,27.69
2023-02-14T00:40:00,axn,27.75
2023-02-14T00:41:00,axn,27.96
2023-02-14T00:42:00,axn,27.85
2023-02-14T00:43:00,axn,27.92
2023-02-14T00:44:00,axn,27.68
2023-02-14T00:45:00,axn,28.02
2023-02-14T00:46:00,axn,27.71
2023-02-14T00:47:00,axn,27.84
2023-02-14T00:48:00,axn,27.83
2023-02-14T00:49:00,axn,27.66
2023-02-14T00:50:00,axn,27.86
2023-02-14T00:51:00,axn,27.73
2023-02-14T00:52:00,axn,27.80
2023-02-14T00:53:00,axn,27.75
2023-02-14T00:54:00,axn,27.53
2023-02-14T00:55:00,axn,27.38
2023-02-14T00:56:00,axn,27.45
2023-02-14T00:57:00,axn,27.92
2023-02-14T00:58:00,axn,27.54
2023-02-14T00:59:00,axn,27.46
2023-02-14T01:00:00,axn,27.52
2023-02-14T01:01:00,axn,27.93
2023-02-14T01:02:00,axn,27.71
2023-02-14T01:03:00,axn,27.65
2023-02-14T01:04:00,axn,27.70
2023-02-14T01:05:00,axn,27.76
2023-02-14T01:06:00,axn,27.52
2023-02-14T01:07:00,axn,27.55
2023-02-14T01:08:00,axn,27.49
2023-02-14T01:09:00,axn,27.41
2023-02-14T01:10:00,axn,27.59
2023-02-14T01:11:00,axn,27.39
2023-02-14T01:12:00,axn,27.54
2023-02-14T01:13:00,axn,27.77
2023-02-14T01:14:00,axn,27.58
2023-02-14T01:15:00,axn,27.73
2023-02-14T01:16:00,axn,27.42
2023-02-14T01:17:00,axn,27.59
2023-02-14T01:18:00,axn,28.61
2023-02-14T01:19:00,axn,27.30
2023-02-14T01:20:00,axn,27.60
2023-02-14T01:21:00,axn,27.95
2023-02-14T01:22:00,axn,27.84
2023-02-14T01:23:00,axn,28.25
2023-02-14T01:24:00,axn,42.86
2023-02-14T01:25:00,axn,45.49
2023-02-14T01:26:00,axn,45.27
2023-02-14T01:27:00,axn,45.01
2023-02-14T01:28:00,axn,42.52
2023-02-14T01:29:00,axn,42.43
2023-02-14T01:30:00,axn,27.97
2023-02-14T01:31:00,axn,27.98
2023-02-14T01:32:00,axn,27.96
2023-02-14T01:33:00,axn,28.48
2023-02-14T01:34:00,axn,28.02
2023-02-14T01:35:00,axn,28.07
2023-02-14T01:36:00,axn,28.02
2023-02-14T01:37:00,axn,28.01
2023-02-14T01:38:00,axn,28.00
2023-02-14T01:39:00,axn,28.03
2023-02-14T01:40:00,axn,28.39
2023-02-14T01:41:00,axn,27.89
2023-02-14T01:42:00,axn,28.35
2023-02-14T01:43:00,axn,27.91
2023-02-14T01:44:00,axn,33.94
2023-02-14T01:45:00,axn,33.90
2023-02-14T01:46:00,axn,28.14
2023-02-14T01:47:00,axn,28.22
2023-02-14T01:48:00,axn,28.00
2023-02-14T01:49:00,axn,28.08
2023-02-14T01:50:00,axn,28.05
2023-02-14T01:51:00,axn,28.35
2023-02-14T01:52:00,axn,28.35
2023-02-14T01:53:00,axn,28.07
2023-02-14T01:54:00,axn,28.05
2023-02-14T01:55:00,axn,28.02
2023-02-14T01:56:00,axn,28.12
2023-02-14T01:57:00,axn,28.84
2023-02-14T01:58:00,axn,28.41
2023-02-14T01:59:00,axn,28.86
2023-02-14T02:00:00,axn,28.46
2023-02-14T02:01:00,axn,28.58
2023-02-14T02:02:00,axn,28.45
2023-02-14T02:03:00,axn,28.52
2023-02-14T02:04:00,axn,28.43
2023-02-14T02:05:00,axn,28.51
2023-02-14T02:06:00,axn,28.55
2023-02-14T02:07:00,axn,28.56
2023-02-14T02:08:00,axn,28.55
2023-02-14T02:09:00,axn,28.75
2023-02-14T02:10:00,axn,28.77
2023-02-14T02:11:00,axn,28.84
2023-02-14T02:12:00,axn,28.55
2023-02-14T02:13:00,axn,28.69
2023-02-14T02:14:00,axn,28.26
2023-02-14T02:15:00,axn,28.59
2023-02-14T02:16:00,axn,28.85
2023-02-14T02:17:00,axn,28.74
2023-02-14T02:18:00,axn,28.40
2023-02-14T02:19:00,axn,28.15
2023-02-14T02:20:00,axn,28.28
2023-02-14T02:21:00,axn,28.19
2023-02-14T02:22:00,axn,28.20
2023-02-14T02:23:00,axn,28.14
2023-02-14T02:24:00,axn,28.07
2023-02-14T02:25:00,axn,28.12
2023-02-14T02:26:00,axn,27.82
2023-02-14T02:27:00,axn,28.25
2023-02-14T02:28:00,axn,27.91
2023-02-14T02:29:00,axn,27.92
2023-02-14T02:30:00,axn,28.40
2023-02-14T02:31:00,axn,27.92
2023-02-14T02:32:00,axn,27.85
2023-02-14T02:33:00,axn,27.78
2023-02-14T02:34:00,axn,27.85
2023-02-14T02:35:00,axn,27.93
2023-02-14T02:36:00,axn,27.84
2023-02-14T02:37:00,axn,27.88
2023-02-14T02:38:00,axn,27.85
2023-02-14T02:39:00,axn,27.71
2023-02-14T02:40:00,axn,27.71
2023-02-14T02:41:00,axn,27.72
2023-02-14T02:42:00,axn,27.67
2023-02-14T02:43:00,axn,27.88
2023-02-14T02:44:00,axn,27.95
2023-02-14T02:45:00,axn,28.14
2023-02-14T02:46:00,axn,27.98
2023-02-14T02:47:00,axn,27.93
2023-02-14T02:48:00,axn,27.62
2023-02-14T02:49:00,axn,27.65
2023-02-14T02:50:00,axn,27.62
2023-02-14T02:51:00,axn,27.53
2023-02-14T02:52:00,axn,27.56
2023-02-14T02:53:00,axn,27.82
2023-02-14T02:54:00,axn,27.42
2023-02-14T02:55:00,axn,27.54
2023-02-14T02:56:00,axn,27.51
2023-02-14T02:57:00,axn,30.63
2023-02-14T02:58:00,axn,28.01
2023-02-14T02:59:00,axn,27.91
2023-02-14T03:00:00,axn,27.92
2023-02-14T03:01:00,axn,28.03
2023-02-14T03:02:00,axn,28.07
2023-02-14T03:03:00,axn,27.97
2023-02-14T03:04:00,axn,27.83
2023-02-14T03:05:00,axn,27.89
2023-02-14T03:06:00,axn,27.75
2023-02-14T03:07:00,axn,27.53
2023-02-14T03:08:00,axn,27.69
2023-02-14T03:09:00,axn,27.70
2023-02-14T03:10:00,axn,27.63
2023-02-14T03:11:00,axn,27.72
2023-02-14T03:12:00,axn,27.85
2023-02-14T03:13:00,axn,27.75
2023-02-14T03:14:00,axn,27.62
2023-02-14T03:15:00,axn,27.46
2023-02-14T03:16:00,axn,27.57
2023-02-14T03:17:00,axn,27.45
2023-02-14T03:18:00,axn,27.44
2023-02-14T03:19:00,axn,27.47
2023-02-14T03:20:00,axn,27.78
2023-02-14T03:21:00,axn,27.48
2023-02-14T03:22:00,axn,27.53
2023-02-14T03:23:00,axn,27.73
2023-02-14T03:24:00,axn,27.99
2023-02-14T03:25:00,axn,27.61
2023-02-14T03:26:00,axn,27.90
2023-02-14T03:27:00,axn,27.56
2023-02-14T03:28:00,axn,27.69
2023-02-14T03:29:00,axn,27.64
2023-02-14T03:30:00,axn,27.70
2023-02-14T03:31:00,axn,27.57
2023-02-14T03:32:00,axn,27.63
2023-02-14T03:33:00,axn,27.84
2023-02-14T03:34:00,axn,27.91
2023-02-14T03:35:00,axn,28.03
2023-02-14T03:36:00,axn,27.52
2023-02-14T03:37:00,axn,27.52
2023-02-14T03:38:00,axn,27.60
2023-02-14T03:39:00,axn,27.67
2023-02-14T03:40:00,axn,27.68
2023-02-14T03:41:00,axn,27.95
2023-02-14T03:42:00,axn,27.71
2023-02-14T03:43:00,axn,27.47
2023-02-14T03:44:00,axn,27.67
2023-02-14T03:45:00,axn,27.52
2023-02-14T03:46:00,axn,27.52
2023-02-14T03:47:00,axn,27.54
2023-02-14T03:48:00,axn,27.56
2023-02-14T03:49:00,axn,27.60
2023-02-14T03:50:00,axn,27.69
2023-02-14T03:51:00,axn,27.50
2023-02-14T03:52:00,axn,27.71
2023-02-14T03:53:00,axn,27.60
2023-02-14T03:54:00,axn,27.79
2023-02-14T03:55:00,axn,27.86
2023-02-14T03:56:00,axn,27.68
2023-02-14T03:57:00,axn,27.75
2023-02-14T03:58:00,axn,27.94
2023-02-14T03:59:00,axn,27.54
2023-02-14T04:00:00,axn,27.58
2023-02-14T04:01:00,axn,27.35
2023-02-14T04:02:00,axn,27.36
2023-02-14T04:03:00,axn,27.24
2023-02-14T04:04:00,axn,27.18
2023-02-14T04:05:00,axn,27.10
2023-02-14T04:06:00,axn,26.95
2023-02-14T04:07:00,axn,26.94
2023-02-14T04:08:00,axn,26.89
2023-02-14T04:09:00,axn,26.91
2023-02-14T04:10:00,axn,27.08
2023-02-14T04:11:00,axn,27.04
2023-02-14T04:12:00,axn,26.88
2023-02-14T04:13:00,axn,27.07
2023-02-14T04:14:00,axn,27.14
2023-02-14T04:15:00,axn,27.61
2023-02-14T04:16:00,axn,27.23
2023-02-14T04:17:00,axn,27.37
2023-02-14T04:18:00,axn,27.34
2023-02-14T04:19:00,axn,27.23
2023-02-14T04:20:00,axn,43.84
2023-02-14T04:21:00,axn,27.50
2023-02-14T04:22:00,axn,27.46
2023-02-14T04:23:00,axn,27.49
2023-02-14T04:24:00,axn,27.13
2023-02-14T04:25:00,axn,27.13
2023-02-14T04:26:00,axn,26.99
2023-02-14T04:27:00,axn,29.94
2023-02-14T04:28:00,axn,29.76
2023-02-14T04:29:00,axn,30.08
2023-02-14T04:30:00,axn,27.44
2023-02-14T04:31:00,axn,27.44
2023-02-14T04:32:00,axn,27.38
2023-02-14T04:33:00,axn,27.96
2023-02-14T04:34:00,axn,28.16
2023-02-14T04:35:00,axn,28.05
2023-02-14T04:36:00,axn,28.09
2023-02-14T04:37:00,axn,28.21
2023-02-14T04:38:00,axn,28.18
2023-02-14T04:39:00,axn,28.10
2023-02-14T04:40:00,axn,27.99
2023-02-14T04:41:00,axn,27.98
2023-02-14T04:42:00,axn,28.02
2023-02-14T04:43:00,axn,28.11
2023-02-14T04:44:00,axn,28.14
2023-02-14T04:45:00,axn,28.14
2023-02-14T04:46:00,axn,28.26
2023-02-14T04:47:00,axn,28.08
2023-02-14T04:48:00,axn,28.12
2023-02-14T04:49:00,axn,28.21
2023-02-14T04:50:00,axn,28.23
2023-02-14T04:51:00,axn,28.25
2023-02-14T04:52:00,axn,28.28
2023-02-14T04:53:00,axn,28.76
2023-02-14T04:54:00,axn,28.30
2023-02-14T04:55:00,axn,28.14
2023-02-14T04:56:00,axn,28.05
2023-02-14T04:57:00,axn,28.14
2023-02-14T04:58:00,axn,27.84
2023-02-14T04:59:00,axn,27.83
2023-02-14T05:00:00,axn,28.20
2023-02-14T05:01:00,axn,27.18
2023-02-14T05:02:00,axn,27.76
2023-02-14T05:03:00,axn,44.61
2023-02-14T05:04:00,axn,28.01
2023-02-14T05:05:00,axn,27.97
2023-02-14T05:06:00,axn,27.80
2023-02-14T05:07:00,axn,27.60
2023-02-14T05:08:00,axn,27.51
2023-02-14T05:09:00,axn,28.32
2023-02-14T05:10:00,axn,27.79
2023-02-14T05:11:00,axn,27.82
2023-02-14T05:12:00,axn,28.17
2023-02-14T05:13:00,axn,27.80
2023-02-14T05:14:00,axn,27.91
2023-02-14T05:15:00,axn,28.09
2023-02-14T05:16:00,axn,27.84
2023-02-14T05:17:00,axn,27.82
2023-02-14T05:18:00,axn,28.10
2023-02-14T05:19:00,axn,28.41
2023-02-14T05:20:00,axn,27.63
2023-02-14T05:21:00,axn,27.71
2023-02-14T05:22:00,axn,27.77
2023-02-14T05:23:00,axn,27.81
2023-02-14T05:24:00,axn,27.65
2023-02-14T05:25:00,axn,27.62
2023-02-14T05:26:00,axn,27.71
2023-02-14T05:27:00,axn,27.78
2023-02-14T05:28:00,axn,27.53
2023-02-14T05:29:00,axn,37.94
2023-02-14T05:30:00,axn,27.42
2023-02-14T05:31:00,axn,27.35
2023-02-14T05:32:00,axn,27.30
2023-02-14T05:33:00,axn,27.79
2023-02-14T05:34:00,axn,27.34
2023-02-14T05:35:00,axn,27.27
2023-02-14T05:36:00,axn,27.38
2023-02-14T05:37:00,axn,27.14
2023-02-14T05:38:00,axn,27.42
2023-02-14T05:39:00,axn,27.15
2023-02-14T05:40:00,axn,27.01
2023-02-14T05:41:00,axn,27.17
2023-02-14T05:42:00,axn,27.53
2023-02-14T05:43:00,axn,28.27
2023-02-14T05:44:00,axn,28.35
2023-02-14T05:45:00,axn,28.36
2023-02-14T05:46:00,axn,28.22
2023-02-14T05:47:00,axn,28.55
2023-02-14T05:48:00,axn,28.31
2023-02-14T05:49:00,axn,28.13
2023-02-14T05:50:00,axn,28.04
2023-02-14T05:51:00,axn,28.37
2023-02-14T05:52:00,axn,27.92
2023-02-14T05:53:00,axn,27.61
2023-02-14T05:54:00,axn,27.67
2023-02-14T05:55:00,axn,27.69
2023-02-14T05:56:00,axn,27.80
2023-02-14T05:57:00,axn,27.63
2023-02-14T05:58:00,axn,28.16
2023-02-14T05:59:00,axn,27.93
2023-02-14T06:00:00,axn,27.85
2023-02-14T06:01:00,axn,29.77
2023-02-14T06:02:00,axn,29.39
2023-02-14T06:03:00,axn,29.14
2023-02-14T06:04:00,axn,28.61
2023-02-14T06:05:00,axn,28.82
2023-02-14T06:06:00,axn,28.75
2023-02-14T06:07:00,axn,28.82
2023-02-14T06:08:00,axn,28.91
2023-02-14T06:09:00,axn,34.73
2023-02-14T06:10:00,axn,49.66
2023-02-14T06:11:00,axn,49.25
2023-02-14T06:12:00,axn,49.15
2023-02-14T06:13:00,axn,43.27
2023-02-14T06:14:00,axn,43.09
2023-02-14T06:15:00,axn,42.71
2023-02-14T06:16:00,axn,28.63
2023-02-14T06:17:00,axn,28.67
2023-02-14T06:18:00,axn,44.16
2023-02-14T06:19:00,axn,28.85
2023-02-14T06:20:00,axn,31.62
2023-02-14T06:21:00,axn,28.82
2023-02-14T06:22:00,axn,28.54
2023-02-14T06:23:00,axn,28.46
2023-02-14T06:24:00,axn,28.61
2023-02-14T06:25:00,axn,28.58
2023-02-14T06:26:00,axn,28.64
2023-02-14T06:27:00,axn,28.91
2023-02-14T06:28:00,axn,28.70
2023-02-14T06:29:00,axn,28.52
2023-02-14T06:30:00,axn,28.34
2023-02-14T06:31:00,axn,28.79
2023-02-14T06:32:00,axn,28.85
2023-02-14T06:33:00,axn,28.93
2023-02-14T06:34:00,axn,28.85
2023-02-14T06:35:00,axn,29.16
2023-02-14T06:36:00,axn,28.69
2023-02-14T06:37:00,axn,28.71
2023-02-14T06:38:00,axn,28.68
2023-02-14T06:39:00,axn,28.33
2023-02-14T06:40:00,axn,28.17
2023-02-14T06:41:00,axn,28.11
2023-02-14T06:42:00,axn,28.35
2023-02-14T06:43:00,axn,28.03
2023-02-14T06:44:00,axn,28.31
2023-02-14T06:45:00,axn,28.05
2023-02-14T06:46:00,axn,28.16
2023-02-14T06:47:00,axn,27.96
2023-02-14T06:48:00,axn,27.87
2023-02-14T06:49:00,axn,27.82
2023-02-14T06:50:00,axn,27.92
2023-02-14T06:51:00,axn,27.80
2023-02-14T06:52:00,axn,27.74
2023-02-14T06:53:00,axn,27.75
2023-02-14T06:54:00,axn,39.64
2023-02-14T06:55:00,axn,37.78
2023-02-14T06:56:00,axn,37.46
2023-02-14T06:57:00,axn,37.48
2023-02-14T06:58:00,axn,37.60
2023-02-14T06:59:00,axn,37.58
2023-02-14T07:00:00,axn,27.75
2023-02-14T07:01:00,axn,31.66
2023-02-14T07:02:00,axn,33.53
2023-02-14T07:03:00,axn,32.31
2023-02-14T07:04:00,axn,31.98
2023-02-14T07:05:00,axn,32.09
2023-02-14T07:06:00,axn,32.26
2023-02-14T07:07:00,axn,31.74
2023-02-14T07:08:00,axn,31.81
2023-02-14T07:09:00,axn,31.84
2023-02-14T07:10:00,axn,32.36
2023-02-14T07:11:00,axn,32.49
2023-02-14T07:12:00,axn,32.29
2023-02-14T07:13:00,axn,32.11
2023-02-14T07:14:00,axn,32.03
2023-02-14T07:15:00,axn,32.07
2023-02-14T07:16:00,axn,32.39
2023-02-14T07:17:00,axn,32.45
2023-02-14T07:18:00,axn,31.60
2023-02-14T07:19:00,axn,31.99
2023-02-14T07:20:00,axn,31.81
2023-02-14T07:21:00,axn,32.01
2023-02-14T07:22:00,axn,31.75
2023-02-14T07:23:00,axn,31.85
2023-02-14T07:24:00,axn,31.73
2023-02-14T07:25:00,axn,31.63
2023-02-14T07:26:00,axn,31.86
2023-02-14T07:27:00,axn,31.83
2023-02-14T07:28:00,axn,32.29
2023-02-14T07:29:00,axn,32.57
2023-02-14T07:30:00,axn,32.10
2023-02-14T07:31:00,axn,32.17
2023-02-14T07:32:00,axn,32.93
2023-02-14T07:33:00,axn,32.98
2023-02-14T07:34:00,axn,35.89
2023-02-14T07:35:00,axn,35.85
2023-02-14T07:36:00,axn,35.98
2023-02-14T07:37:00,axn,33.47
2023-02-14T07:38:00,axn,33.06
2023-02-14T07:39:00,axn,33.02
2023-02-14T07:40:00,axn,33.04
2023-02-14T07:41:00,axn,36.66
2023-02-14T07:42:00,axn,36.82
2023-02-14T07:43:00,axn,36.64
2023-02-14T07:44:00,axn,36.21
2023-02-14T07:45:00,axn,38.22
2023-02-14T07:46:00,axn,36.85
2023-02-14T07:47:00,axn,37.23
2023-02-14T07:48:00,axn,36.53
2023-02-14T07:49:00,axn,36.76
2023-02-14T07:50:00,axn,37.53
2023-02-14T07:51:00,axn,38.12
2023-02-14T07:52:00,axn,37.71
2023-02-14T07:53:00,axn,37.82
2023-02-14T07:54:00,axn,37.88
2023-02-14T07:55:00,axn,37.88
2023-02-14T07:56:00,axn,38.27
2023-02-14T07:57:00,axn,37.95
2023-02-14T07:58:00,axn,38.48
2023-02-14T07:59:00,axn,38.66
2023-02-14T08:00:00,axn,38.37
2023-02-14T08:01:00,axn,38.45
2023-02-14T08:02:00,axn,39.41
2023-02-14T08:03:00,axn,43.74
2023-02-14T08:04:00,axn,43.23
2023-02-14T08:05:00,axn,43.29
2023-02-14T08:06:00,axn,39.05
2023-02-14T08:07:00,axn,39.21
2023-02-14T08:08:00,axn,39.12
2023-02-14T08:09:00,axn,38.54
2023-02-14T08:10:00,axn,38.72
2023-02-14T08:11:00,axn,39.00
2023-02-14T08:12:00,axn,38.73
2023-02-14T08:13:00,axn,38.73
2023-02-14T08:14:00,axn,39.24
2023-02-14T08:15:00,axn,38.76
2023-02-14T08:16:00,axn,39.56
2023-02-14T08:17:00,axn,39.42
2023-02-14T08:18:00,axn,38.92
2023-02-14T08:19:00,axn,39.10
2023-02-14T08:20:00,axn,39.04
2023-02-14T08:21:00,axn,39.42
2023-02-14T08:22:00,axn,39.30
2023-02-14T08:23:00,axn,39.26
2023-02-14T08:24:00,axn,39.13
2023-02-14T08:25:00,axn,38.87
2023-02-14T08:26:00,axn,38.93
2023-02-14T08:27:00,axn,39.14
2023-02-14T08:28:00,axn,39.08
2023-02-14T08:29:00,axn,39.44
2023-02-14T08:30:00,axn,39.16
2023-02-14T08:31:00,axn,39.37
2023-02-14T08:32:00,axn,39.23
2023-02-14T08:33:00,axn,39.15
2023-02-14T08:34:00,axn,39.20
2023-02-14T08:35:00,axn,39.53
2023-02-14T08:36:00,axn,39.37
2023-02-14T08:37:00,axn,39.69
2023-02-14T08:38:00,axn,39.76
2023-02-14T08:39:00,axn,39.81
2023-02-14T08:40:00,axn,39.73
2023-02-14T08:41:00,axn,39.85
2023-02-14T08:42:00,axn,40.18
2023-02-14T08:43:00,axn,39.79
2023-02-14T08:44:00,axn,40.17
2023-02-14T08:45:00,axn,39.92
2023-02-14T08:46:00,axn,39.95
2023-02-14T08:47:00,axn,40.41
2023-02-14T08:48:00,axn,40.94
2023-02-14T08:49:00,axn,40.77
2023-02-14T08:50:00,axn,39.52
2023-02-14T08:51:00,axn,39.64
2023-02-14T08:52:00,axn,39.69
2023-02-14T08:53:00,axn,39.81
2023-02-14T08:54:00,axn,39.48
2023-02-14T08:55:00,axn,39.58
2023-02-14T08:56:00,axn,39.87
2023-02-14T08:57:00,axn,40.22
2023-02-14T08:58:00,axn,40.34
2023-02-14T08:59:00,axn,40.32
2023-02-14T09:00:00,axn,40.34
2023-02-14T09:01:00,axn,40.10
2023-02-14T09:02:00,axn,41.30
2023-02-14T09:03:00,axn,44.02
2023-02-14T09:04:00,axn,40.83
2023-02-14T09:05:00,axn,40.67
2023-02-14T09:06:00,axn,40.56
2023-02-14T09:07:00,axn,40.65
2023-02-14T09:08:00,axn,40.21
2023-02-14T09:09:00,axn,41.20
2023-02-14T09:10:00,axn,39.72
2023-02-14T09:11:00,axn,39.72
2023-02-14T09:12:00,axn,39.74
2023-02-14T09:13:00,axn,39.55
2023-02-14T09:14:00,axn,39.89
2023-02-14T09:15:00,axn,39.68
2023-02-14T09:16:00,axn,39.96
2023-02-14T09:17:00,axn,39.88
2023-02-14T09:18:00,axn,38.57
2023-02-14T09:19:00,axn,38.34
2023-02-14T09:20:00,axn,38.63
2023-02-14T09:21:00,axn,38.65
2023-02-14T09:22:00,axn,38.90
2023-02-14T09:23:00,axn,38.80
2023-02-14T09:24:00,axn,41.46
2023-02-14T09:25:00,axn,41.37
2023-02-14T09:26:00,axn,41.80
2023-02-14T09:27:00,axn,38.73
2023-02-14T09:28:00,axn,39.48
2023-02-14T09:29:00,axn,40.86
2023-02-14T09:30:00,axn,40.59
2023-02-14T09:31:00,axn,43.12
2023-02-14T09:32:00,axn,42.29
2023-02-14T09:33:00,axn,41.51
2023-02-14T09:34:00,axn,41.83
2023-02-14T09:35:00,axn,42.56
2023-02-14T09:36:00,axn,43.95
2023-02-14T09:37:00,axn,43.72
2023-02-14T09:38:00,axn,44.92
2023-02-14T09:39:00,axn,61.22
2023-02-14T09:40:00,axn,45.64
2023-02-14T09:41:00,axn,46.61
2023-02-14T09:42:00,axn,46.43
2023-02-14T09:43:00,axn,46.49
2023-02-14T09:44:00,axn,46.20
2023-02-14T09:45:00,axn,46.19
2023-02-14T09:46:00,axn,45.94
2023-02-14T09:47:00,axn,45.97
2023-02-14T09:48:00,axn,45.77
2023-02-14T09:49:00,axn,46.47
2023-02-14T09:50:00,axn,46.69
2023-02-14T09:51:00,axn,61.02
2023-02-14T09:52:00,axn,60.82
2023-02-14T09:53:00,axn,61.30
2023-02-14T09:54:00,axn,60.43
2023-02-14T09:55:00,axn,60.19
2023-02-14T09:56:00,axn,60.09
2023-02-14T09:57:00,axn,46.73
2023-02-14T09:58:00,axn,47.54
2023-02-14T09:59:00,axn,46.74
2023-02-14T10:00:00,axn,46.83
2023-02-14T10:01:00,axn,46.12
2023-02-14T10:02:00,axn,46.71
2023-02-14T10:03:00,axn,47.47
2023-02-14T10:04:00,axn,47.08
2023-02-14T10:05:00,axn,47.45
2023-02-14T10:06:00,axn,46.65
2023-02-14T10:07:00,axn,46.85
2023-02-14T10:08:00,axn,46.94
2023-02-14T10:09:00,axn,46.58
2023-02-14T10:10:00,axn,47.76
2023-02-14T10:11:00,axn,46.41
2023-02-14T10:12:00,axn,46.56
2023-02-14T10:13:00,axn,46.79
2023-02-14T10:14:00,axn,46.31
2023-02-14T10:15:00,axn,46.47
2023-02-14T10:16:00,axn,46.54
2023-02-14T10:17:00,axn,46.58
2023-02-14T10:18:00,axn,47.26
2023-02-14T10:19:00,axn,46.84
2023-02-14T10:20:00,axn,46.86
2023-02-14T10:21:00,axn,46.81
2023-02-14T10:22:00,axn,47.11
2023-02-14T10:23:00,axn,47.11
2023-02-14T10:24:00,axn,46.69
2023-02-14T10:25:00,axn,46.80
2023-02-14T10:26:00,axn,47.11
2023-02-14T10:27:00,axn,46.55
2023-02-14T10:28:00,axn,46.97
2023-02-14T10:29:00,axn,46.76
2023-02-14T10:30:00,axn,46.88
2023-02-14T10:31:00,axn,47.71
2023-02-14T10:32:00,axn,62.92
2023-02-14T10:33:00,axn,46.80
2023-02-14T10:34:00,axn,47.17
2023-02-14T10:35:00,axn,46.85
2023-02-14T10:36:00,axn,47.41
2023-02-14T10:37:00,axn,48.58
2023-02-14T10:38:00,axn,47.87
2023-02-14T10:39:00,axn,46.90
2023-02-14T10:40:00,axn,46.57
2023-02-14T10:41:00,axn,47.95
2023-02-14T10:42:00,axn,47.02
2023-02-14T10:43:00,axn,46.52
2023-02-14T10:44:00,axn,46.02
2023-02-14T10:45:00,axn,48.61
2023-02-14T10:46:00,axn,48.90
2023-02-14T10:47:00,axn,48.57
2023-02-14T10:48:00,axn,48.42
2023-02-14T10:49:00,axn,48.62
2023-02-14T10:50:00,axn,45.98
2023-02-14T10:51:00,axn,45.61
2023-02-14T10:52:00,axn,45.96
2023-02-14T10:53:00,axn,46.21
2023-02-14T10:54:00,axn,46.20
2023-02-14T10:55:00,axn,45.68
2023-02-14T10:56:00,axn,45.70
2023-02-14T10:57:00,axn,45.58
2023-02-14T10:58:00,axn,45.75
2023-02-14T10:59:00,axn,46.58
2023-02-14T11:00:00,axn,46.48
2023-02-14T11:01:00,axn,47.41
2023-02-14T11:02:00,axn,47.27
2023-02-14T11:03:00,axn,47.26
2023-02-14T11:04:00,axn,47.45
2023-02-14T11:05:00,axn,45.71
2023-02-14T11:06:00,axn,45.69
2023-02-14T11:07:00,axn,46.48
2023-02-14T11:08:00,axn,45.30
2023-02-14T11:09:00,axn,55.66
2023-02-14T11:10:00,axn,55.58
2023-02-14T11:11:00,axn,56.33
2023-02-14T11:12:00,axn,55.66
2023-02-14T11:13:00,axn,46.21
2023-02-14T11:14:00,axn,45.73
2023-02-14T11:15:00,axn,46.59
2023-02-14T11:16:00,axn,46.14
2023-02-14T11:17:00,axn,46.15
2023-02-14T11:18:00,axn,46.42
2023-02-14T11:19:00,axn,45.82
2023-02-14T11:20:00,axn,45.76
2023-02-14T11:21:00,axn,45.62
2023-02-14T11:22:00,axn,46.20
2023-02-14T11:23:00,axn,46.06
2023-02-14T11:24:00,axn,45.59
2023-02-14T11:25:00,axn,45.43
2023-02-14T11:26:00,axn,45.40
2023-02-14T11:27:00,axn,45.64
2023-02-14T11:28:00,axn,48.20
2023-02-14T11:29:00,axn,48.30
2023-02-14T11:30:00,axn,47.67
2023-02-14T11:31:00,axn,45.53
2023-02-14T11:32:00,axn,46.30
2023-02-14T11:33:00,axn,46.51
2023-02-14T11:34:00,axn,47.18
2023-02-14T11:35:00,axn,47.36
2023-02-14T11:36:00,axn,45.72
2023-02-14T11:37:00,axn,46.15
2023-02-14T11:38:00,axn,45.88
2023-02-14T11:39:00,axn,46.19
2023-02-14T11:40:00,axn,46.04
2023-02-14T11:41:00,axn,47.10
2023-02-14T11:42:00,axn,47.14
2023-02-14T11:43:00,axn,46.58
2023-02-14T11:44:00,axn,46.00
2023-02-14T11:45:00,axn,46.98
2023-02-14T11:46:00,axn,46.80
2023-02-14T11:47:00,axn,46.36
2023-02-14T11:48:00,axn,46.29
2023-02-14T11:49:00,axn,45.77
2023-02-14T11:50:00,axn,46.02
2023-02-14T11:51:00,axn,46.52
2023-02-14T11:52:00,axn,46.38
2023-02-14T11:53:00,axn,46.47
2023-02-14T11:54:00,axn,45.76
2023-02-14T11:55:00,axn,45.99
2023-02-14T11:56:00,axn,46.90
2023-02-14T11:57:00,axn,46.95
2023-02-14T11:58:00,axn,47.72
2023-02-14T11:59:00,axn,47.46
2023-02-14T12:00:00,axn,47.69
2023-02-14T12:01:00,axn,48.68
2023-02-14T12:02:00,axn,48.35
2023-02-14T12:03:00,axn,48.53
2023-02-14T12:04:00,axn,48.12
2023-02-14T12:05:00,axn,48.07
2023-02-14T12:06:00,axn,48.96
2023-02-14T12:07:00,axn,47.98
2023-02-14T12:08:00,axn,48.24
2023-02-14T12:09:00,axn,48.40
2023-02-14T12:10:00,axn,48.06
2023-02-14T12:11:00,axn,48.40
2023-02-14T12:12:00,axn,48.13
2023-02-14T12:13:00,axn,48.41
2023-02-14T12:14:00,axn,47.95
2023-02-14T12:15:00,axn,48.21
2023-02-14T12:16:00,axn,48.28
2023-02-14T12:17:00,axn,47.60
2023-02-14T12:18:00,axn,47.42
2023-02-14T12:19:00,axn,47.76
2023-02-14T12:20:00,axn,46.94
2023-02-14T12:21:00,axn,47.09
2023-02-14T12:22:00,axn,49.59
2023-02-14T12:23:00,axn,46.70
2023-02-14T12:24:00,axn,46.66
2023-02-14T12:25:00,axn,46.67
2023-02-14T12:26:00,axn,46.44
2023-02-14T12:27:00,axn,46.13
2023-02-14T12:28:00,axn,45.84
2023-02-14T12:29:00,axn,45.96
2023-02-14T12:30:00,axn,46.15
2023-02-14T12:31:00,axn,46.48
2023-02-14T12:32:00,axn,60.91
2023-02-14T12:33:00,axn,61.28
2023-02-14T12:34:00,axn,62.40
2023-02-14T12:35:00,axn,62.37
2023-02-14T12:36:00,axn,62.06
2023-02-14T12:37:00,axn,59.32
2023-02-14T12:38:00,axn,45.44
2023-02-14T12:39:00,axn,45.30
2023-02-14T12:40:00,axn,45.36
2023-02-14T12:41:00,axn,45.55
2023-02-14T12:42:00,axn,45.46
2023-02-14T12:43:00,axn,45.24
2023-02-14T12:44:00,axn,45.96
2023-02-14T12:45:00,axn,46.33
2023-02-14T12:46:00,axn,46.36
2023-02-14T12:47:00,axn,46.66
2023-02-14T12:48:00,axn,47.18
2023-02-14T12:49:00,axn,46.83
2023-02-14T12:50:00,axn,46.98
2023-02-14T12:51:00,axn,47.81
2023-02-14T12:52:00,axn,48.11
2023-02-14T12:53:00,axn,47.91
2023-02-14T12:54:00,axn,53.73
2023-02-14T12:55:00,axn,52.57
2023-02-14T12:56:00,axn,52.82
2023-02-14T12:57:00,axn,46.77
2023-02-14T12:58:00,axn,46.81
2023-02-14T12:59:00,axn,46.57
2023-02-14T13:00:00,axn,47.06
2023-02-14T13:01:00,axn,46.87
2023-02-14T13:02:00,axn,46.78
2023-02-14T13:03:00,axn,47.16
2023-02-14T13:04:00,axn,46.68
2023-02-14T13:05:00,axn,46.55
2023-02-14T13:06:00,axn,46.62
2023-02-14T13:07:00,axn,47.09
2023-02-14T13:08:00,axn,46.78
2023-02-14T13:09:00,axn,46.97
2023-02-14T13:10:00,axn,47.00
2023-02-14T13:11:00,axn,47.33
2023-02-14T13:12:00,axn,47.00
2023-02-14T13:13:00,axn,47.39
2023-02-14T13:14:00,axn,47.13
2023-02-14T13:15:00,axn,47.48
2023-02-14T13:16:00,axn,47.19
2023-02-14T13:17:00,axn,47.87
2023-02-14T13:18:00,axn,47.39